owner,sensor,date,latitude,longitude,sea_surface_height_above_sea_level,qcFlag 
COMPS,ioos:station:USF.COMPS:FHP:1,2016-11-01T00:06:00Z,28.1530,-82.8010,-9.995,1111122 
COMPS,ioos:station:USF.COMPS:FHP:1,2016-11-01T00:12:00Z,28.1530,-82.8010,-9.983,1111122 
COMPS,ioos:station:USF.COMPS:FHP:1,2016-11-01T00:18:00Z,28.1530,-82.8010,-9.975,1111122 
COMPS,ioos:station:USF.COMPS:FHP:1,2016-11-01T00:24:00Z,28.1530,-82.8010,-9.96,1111122 
COMPS,ioos:station:USF.COMPS:FHP:1,2016-11-01T00:30:00Z,28.1530,-82.8010,-9.949,1111122 
COMPS,ioos:station:USF.COMPS:FHP:1,2016-11-01T00:36:00Z,28.1530,-82.8010,-9.935,1111122 
COMPS,ioos:station:USF.COMPS:FHP:1,2016-11-01T00:42:00Z,28.1530,-82.8010,-9.924,1111122 
COMPS,ioos:station:USF.COMPS:FHP:1,2016-11-01T00:48:00Z,28.1530,-82.8010,-9.908,1111122 
COMPS,ioos:station:USF.COMPS:FHP:1,2016-11-01T00:54:00Z,28.1530,-82.8010,-9.892,1111122 
COMPS,ioos:station:USF.COMPS:FHP:1,2016-11-01T01:00:00Z,28.1530,-82.8010,-9.874,1111122 
COMPS,ioos:station:USF.COMPS:FHP:1,2016-11-01T01:06:00Z,28.1530,-82.8010,-9.855,1111122 
COMPS,ioos:station:USF.COMPS:FHP:1,2016-11-01T01:12:00Z,28.1530,-82.8010,-9.836,1111122 
COMPS,ioos:station:USF.COMPS:FHP:1,2016-11-01T01:18:00Z,28.1530,-82.8010,-9.814,1111122 
COMPS,ioos:station:USF.COMPS:FHP:1,2016-11-01T01:30:00Z,28.1530,-82.8010,-9.782,1111122 
COMPS,ioos:station:USF.COMPS:FHP:1,2016-11-01T01:36:00Z,28.1530,-82.8010,-9.766,1111122 
COMPS,ioos:station:USF.COMPS:FHP:1,2016-11-01T01:42:00Z,28.1530,-82.8010,-9.748,1111122 
COMPS,ioos:station:USF.COMPS:FHP:1,2016-11-01T01:48:00Z,28.1530,-82.8010,-9.727,1111122 
COMPS,ioos:station:USF.COMPS:FHP:1,2016-11-01T01:54:00Z,28.1530,-82.8010,-9.708,1111122 
COMPS,ioos:station:USF.COMPS:FHP:1,2016-11-01T02:00:00Z,28.1530,-82.8010,-9.687,1111122 
COMPS,ioos:station:USF.COMPS:FHP:1,2016-11-01T02:06:00Z,28.1530,-82.8010,-9.667,1111122 
COMPS,ioos:station:USF.COMPS:FHP:1,2016-11-01T02:12:00Z,28.1530,-82.8010,-9.643,1111122 
COMPS,ioos:station:USF.COMPS:FHP:1,2016-11-01T02:18:00Z,28.1530,-82.8010,-9.619,1111122 
COMPS,ioos:station:USF.COMPS:FHP:1,2016-11-01T02:24:00Z,28.1530,-82.8010,-9.598,1111122 
COMPS,ioos:station:USF.COMPS:FHP:1,2016-11-01T02:30:00Z,28.1530,-82.8010,-9.576,1111122 
COMPS,ioos:station:USF.COMPS:FHP:1,2016-11-01T02:36:00Z,28.1530,-82.8010,-9.555,1111122 
COMPS,ioos:station:USF.COMPS:FHP:1,2016-11-01T02:42:00Z,28.1530,-82.8010,-9.534,1111122 
COMPS,ioos:station:USF.COMPS:FHP:1,2016-11-01T02:48:00Z,28.1530,-82.8010,-9.513,1111122 
COMPS,ioos:station:USF.COMPS:FHP:1,2016-11-01T02:54:00Z,28.1530,-82.8010,-9.492,1111122 
COMPS,ioos:station:USF.COMPS:FHP:1,2016-11-01T03:00:00Z,28.1530,-82.8010,-9.473,1111122 
COMPS,ioos:station:USF.COMPS:FHP:1,2016-11-01T03:06:00Z,28.1530,-82.8010,-9.454,1111122 
COMPS,ioos:station:USF.COMPS:FHP:1,2016-11-01T03:12:00Z,28.1530,-82.8010,-9.434,1111122 
COMPS,ioos:station:USF.COMPS:FHP:1,2016-11-01T03:18:00Z,28.1530,-82.8010,-9.422,1111122 
COMPS,ioos:station:USF.COMPS:FHP:1,2016-11-01T03:24:00Z,28.1530,-82.8010,-9.41,1111122 
COMPS,ioos:station:USF.COMPS:FHP:1,2016-11-01T03:30:00Z,28.1530,-82.8010,-9.402,1111122 
COMPS,ioos:station:USF.COMPS:FHP:1,2016-11-01T03:36:00Z,28.1530,-82.8010,-9.386,1111122 
COMPS,ioos:station:USF.COMPS:FHP:1,2016-11-01T03:42:00Z,28.1530,-82.8010,-9.375,1111122 
COMPS,ioos:station:USF.COMPS:FHP:1,2016-11-01T03:48:00Z,28.1530,-82.8010,-9.364,1111122 
COMPS,ioos:station:USF.COMPS:FHP:1,2016-11-01T03:54:00Z,28.1530,-82.8010,-9.355,1111122 
COMPS,ioos:station:USF.COMPS:FHP:1,2016-11-01T04:00:00Z,28.1530,-82.8010,-9.344,1111122 
COMPS,ioos:station:USF.COMPS:FHP:1,2016-11-01T04:06:00Z,28.1530,-82.8010,-9.345,1111122 
COMPS,ioos:station:USF.COMPS:FHP:1,2016-11-01T04:12:00Z,28.1530,-82.8010,-9.344,1111122 
COMPS,ioos:station:USF.COMPS:FHP:1,2016-11-01T04:18:00Z,28.1530,-82.8010,-9.344,1111122 
COMPS,ioos:station:USF.COMPS:FHP:1,2016-11-01T04:24:00Z,28.1530,-82.8010,-9.337,1111122 
COMPS,ioos:station:USF.COMPS:FHP:1,2016-11-01T04:30:00Z,28.1530,-82.8010,-9.333,1111122 
COMPS,ioos:station:USF.COMPS:FHP:1,2016-11-01T04:36:00Z,28.1530,-82.8010,-9.334,1111122 
COMPS,ioos:station:USF.COMPS:FHP:1,2016-11-01T04:42:00Z,28.1530,-82.8010,-9.338,1111122 
COMPS,ioos:station:USF.COMPS:FHP:1,2016-11-01T04:48:00Z,28.1530,-82.8010,-9.353,1111122 
COMPS,ioos:station:USF.COMPS:FHP:1,2016-11-01T04:54:00Z,28.1530,-82.8010,-9.362,1111122 
COMPS,ioos:station:USF.COMPS:FHP:1,2016-11-01T05:00:00Z,28.1530,-82.8010,-9.362,1111122 
COMPS,ioos:station:USF.COMPS:FHP:1,2016-11-01T05:06:00Z,28.1530,-82.8010,-9.369,1111122 
COMPS,ioos:station:USF.COMPS:FHP:1,2016-11-01T05:12:00Z,28.1530,-82.8010,-9.371,1111122 
COMPS,ioos:station:USF.COMPS:FHP:1,2016-11-01T05:18:00Z,28.1530,-82.8010,-9.377,1111122 
COMPS,ioos:station:USF.COMPS:FHP:1,2016-11-01T05:24:00Z,28.1530,-82.8010,-9.379,1111122 
COMPS,ioos:station:USF.COMPS:FHP:1,2016-11-01T05:30:00Z,28.1530,-82.8010,-9.39,1111122 
COMPS,ioos:station:USF.COMPS:FHP:1,2016-11-01T05:36:00Z,28.1530,-82.8010,-9.397,1111122 
COMPS,ioos:station:USF.COMPS:FHP:1,2016-11-01T05:42:00Z,28.1530,-82.8010,-9.405,1111122 
COMPS,ioos:station:USF.COMPS:FHP:1,2016-11-01T05:48:00Z,28.1530,-82.8010,-9.41,1111122 
COMPS,ioos:station:USF.COMPS:FHP:1,2016-11-01T05:54:00Z,28.1530,-82.8010,-9.415,1111122 
COMPS,ioos:station:USF.COMPS:FHP:1,2016-11-01T06:00:00Z,28.1530,-82.8010,-9.426,1111122 
COMPS,ioos:station:USF.COMPS:FHP:1,2016-11-01T06:06:00Z,28.1530,-82.8010,-9.44,1111122 
COMPS,ioos:station:USF.COMPS:FHP:1,2016-11-01T06:12:00Z,28.1530,-82.8010,-9.458,1111122 
COMPS,ioos:station:USF.COMPS:FHP:1,2016-11-01T06:18:00Z,28.1530,-82.8010,-9.481,1111122 
COMPS,ioos:station:USF.COMPS:FHP:1,2016-11-01T06:24:00Z,28.1530,-82.8010,-9.497,1111122 
COMPS,ioos:station:USF.COMPS:FHP:1,2016-11-01T06:30:00Z,28.1530,-82.8010,-9.504,1111122 
COMPS,ioos:station:USF.COMPS:FHP:1,2016-11-01T06:36:00Z,28.1530,-82.8010,-9.524,1111122 
COMPS,ioos:station:USF.COMPS:FHP:1,2016-11-01T06:42:00Z,28.1530,-82.8010,-9.546,1111122 
COMPS,ioos:station:USF.COMPS:FHP:1,2016-11-01T06:48:00Z,28.1530,-82.8010,-9.572,1111122 
COMPS,ioos:station:USF.COMPS:FHP:1,2016-11-01T06:54:00Z,28.1530,-82.8010,-9.595,1111122 
COMPS,ioos:station:USF.COMPS:FHP:1,2016-11-01T07:00:00Z,28.1530,-82.8010,-9.614,1111122 
COMPS,ioos:station:USF.COMPS:FHP:1,2016-11-01T07:06:00Z,28.1530,-82.8010,-9.63,1111122 
COMPS,ioos:station:USF.COMPS:FHP:1,2016-11-01T07:12:00Z,28.1530,-82.8010,-9.654,1111122 
COMPS,ioos:station:USF.COMPS:FHP:1,2016-11-01T07:18:00Z,28.1530,-82.8010,-9.68,1111122 
COMPS,ioos:station:USF.COMPS:FHP:1,2016-11-01T07:24:00Z,28.1530,-82.8010,-9.698,1111122 
COMPS,ioos:station:USF.COMPS:FHP:1,2016-11-01T07:30:00Z,28.1530,-82.8010,-9.714,1111122 
COMPS,ioos:station:USF.COMPS:FHP:1,2016-11-01T07:36:00Z,28.1530,-82.8010,-9.735,1111122 
COMPS,ioos:station:USF.COMPS:FHP:1,2016-11-01T07:42:00Z,28.1530,-82.8010,-9.755,1111122 
COMPS,ioos:station:USF.COMPS:FHP:1,2016-11-01T07:48:00Z,28.1530,-82.8010,-9.779,1111122 
COMPS,ioos:station:USF.COMPS:FHP:1,2016-11-01T07:54:00Z,28.1530,-82.8010,-9.793,1111122 
COMPS,ioos:station:USF.COMPS:FHP:1,2016-11-01T08:00:00Z,28.1530,-82.8010,-9.815,1111122 
COMPS,ioos:station:USF.COMPS:FHP:1,2016-11-01T08:06:00Z,28.1530,-82.8010,-9.831,1111122 
COMPS,ioos:station:USF.COMPS:FHP:1,2016-11-01T08:12:00Z,28.1530,-82.8010,-9.851,1111122 
COMPS,ioos:station:USF.COMPS:FHP:1,2016-11-01T08:18:00Z,28.1530,-82.8010,-9.866,1111122 
COMPS,ioos:station:USF.COMPS:FHP:1,2016-11-01T08:24:00Z,28.1530,-82.8010,-9.885,1111122 
COMPS,ioos:station:USF.COMPS:FHP:1,2016-11-01T08:30:00Z,28.1530,-82.8010,-9.899,1111122 
COMPS,ioos:station:USF.COMPS:FHP:1,2016-11-01T08:36:00Z,28.1530,-82.8010,-9.915,1111122 
COMPS,ioos:station:USF.COMPS:FHP:1,2016-11-01T08:42:00Z,28.1530,-82.8010,-9.938,1111122 
COMPS,ioos:station:USF.COMPS:FHP:1,2016-11-01T08:48:00Z,28.1530,-82.8010,-9.953,1111122 
COMPS,ioos:station:USF.COMPS:FHP:1,2016-11-01T08:54:00Z,28.1530,-82.8010,-9.968,1111122 
COMPS,ioos:station:USF.COMPS:FHP:1,2016-11-01T09:00:00Z,28.1530,-82.8010,-9.984,1111122 
COMPS,ioos:station:USF.COMPS:FHP:1,2016-11-01T09:06:00Z,28.1530,-82.8010,-9.997,1111122 
COMPS,ioos:station:USF.COMPS:FHP:1,2016-11-01T14:42:00Z,28.1530,-82.8010,-9.979,1111122 
COMPS,ioos:station:USF.COMPS:FHP:1,2016-11-01T14:48:00Z,28.1530,-82.8010,-9.961,1111122 
COMPS,ioos:station:USF.COMPS:FHP:1,2016-11-01T14:54:00Z,28.1530,-82.8010,-9.936,1111122 
COMPS,ioos:station:USF.COMPS:FHP:1,2016-11-01T15:00:00Z,28.1530,-82.8010,-9.919,1111122 
COMPS,ioos:station:USF.COMPS:FHP:1,2016-11-01T15:06:00Z,28.1530,-82.8010,-9.894,1111122 
COMPS,ioos:station:USF.COMPS:FHP:1,2016-11-01T15:12:00Z,28.1530,-82.8010,-9.876,1111122 
COMPS,ioos:station:USF.COMPS:FHP:1,2016-11-01T15:18:00Z,28.1530,-82.8010,-9.855,1111122 
COMPS,ioos:station:USF.COMPS:FHP:1,2016-11-01T15:24:00Z,28.1530,-82.8010,-9.835,1111122 
COMPS,ioos:station:USF.COMPS:FHP:1,2016-11-01T15:30:00Z,28.1530,-82.8010,-9.814,1111122 
COMPS,ioos:station:USF.COMPS:FHP:1,2016-11-01T15:36:00Z,28.1530,-82.8010,-9.793,1111122 
COMPS,ioos:station:USF.COMPS:FHP:1,2016-11-01T15:42:00Z,28.1530,-82.8010,-9.776,1111122 
COMPS,ioos:station:USF.COMPS:FHP:1,2016-11-01T15:48:00Z,28.1530,-82.8010,-9.752,1111122 
COMPS,ioos:station:USF.COMPS:FHP:1,2016-11-01T15:54:00Z,28.1530,-82.8010,-9.736,1111122 
COMPS,ioos:station:USF.COMPS:FHP:1,2016-11-01T16:00:00Z,28.1530,-82.8010,-9.717,1111122 
COMPS,ioos:station:USF.COMPS:FHP:1,2016-11-01T16:06:00Z,28.1530,-82.8010,-9.697,1111122 
COMPS,ioos:station:USF.COMPS:FHP:1,2016-11-01T16:12:00Z,28.1530,-82.8010,-9.683,1111122 
COMPS,ioos:station:USF.COMPS:FHP:1,2016-11-01T16:18:00Z,28.1530,-82.8010,-9.678,1111122 
COMPS,ioos:station:USF.COMPS:FHP:1,2016-11-01T16:24:00Z,28.1530,-82.8010,-9.663,1111122 
COMPS,ioos:station:USF.COMPS:FHP:1,2016-11-01T16:30:00Z,28.1530,-82.8010,-9.646,1111122 
COMPS,ioos:station:USF.COMPS:FHP:1,2016-11-01T16:36:00Z,28.1530,-82.8010,-9.625,1111122 
COMPS,ioos:station:USF.COMPS:FHP:1,2016-11-01T16:42:00Z,28.1530,-82.8010,-9.618,1111122 
COMPS,ioos:station:USF.COMPS:FHP:1,2016-11-01T16:48:00Z,28.1530,-82.8010,-9.606,1111122 
COMPS,ioos:station:USF.COMPS:FHP:1,2016-11-01T16:54:00Z,28.1530,-82.8010,-9.594,1111122 
COMPS,ioos:station:USF.COMPS:FHP:1,2016-11-01T17:00:00Z,28.1530,-82.8010,-9.588,1111122 
COMPS,ioos:station:USF.COMPS:FHP:1,2016-11-01T17:06:00Z,28.1530,-82.8010,-9.574,1111122 
COMPS,ioos:station:USF.COMPS:FHP:1,2016-11-01T17:12:00Z,28.1530,-82.8010,-9.566,1111122 
COMPS,ioos:station:USF.COMPS:FHP:1,2016-11-01T17:18:00Z,28.1530,-82.8010,-9.557,1111122 
COMPS,ioos:station:USF.COMPS:FHP:1,2016-11-01T17:24:00Z,28.1530,-82.8010,-9.549,1111122 
COMPS,ioos:station:USF.COMPS:FHP:1,2016-11-01T17:30:00Z,28.1530,-82.8010,-9.541,1111122 
COMPS,ioos:station:USF.COMPS:FHP:1,2016-11-01T17:36:00Z,28.1530,-82.8010,-9.539,1111122 
COMPS,ioos:station:USF.COMPS:FHP:1,2016-11-01T17:42:00Z,28.1530,-82.8010,-9.532,1111122 
COMPS,ioos:station:USF.COMPS:FHP:1,2016-11-01T17:48:00Z,28.1530,-82.8010,-9.531,1111122 
COMPS,ioos:station:USF.COMPS:FHP:1,2016-11-01T17:54:00Z,28.1530,-82.8010,-9.528,1111122 
COMPS,ioos:station:USF.COMPS:FHP:1,2016-11-01T18:00:00Z,28.1530,-82.8010,-9.524,1111122 
COMPS,ioos:station:USF.COMPS:FHP:1,2016-11-01T18:06:00Z,28.1530,-82.8010,-9.519,1111122 
COMPS,ioos:station:USF.COMPS:FHP:1,2016-11-01T18:12:00Z,28.1530,-82.8010,-9.519,1111122 
COMPS,ioos:station:USF.COMPS:FHP:1,2016-11-01T18:18:00Z,28.1530,-82.8010,-9.517,1111122 
COMPS,ioos:station:USF.COMPS:FHP:1,2016-11-01T18:24:00Z,28.1530,-82.8010,-9.515,1111122 
COMPS,ioos:station:USF.COMPS:FHP:1,2016-11-01T18:30:00Z,28.1530,-82.8010,-9.517,1111122 
COMPS,ioos:station:USF.COMPS:FHP:1,2016-11-01T18:36:00Z,28.1530,-82.8010,-9.517,1111122 
COMPS,ioos:station:USF.COMPS:FHP:1,2016-11-01T18:42:00Z,28.1530,-82.8010,-9.519,1111122 
COMPS,ioos:station:USF.COMPS:FHP:1,2016-11-01T18:48:00Z,28.1530,-82.8010,-9.519,1111122 
COMPS,ioos:station:USF.COMPS:FHP:1,2016-11-01T18:54:00Z,28.1530,-82.8010,-9.522,1111122 
COMPS,ioos:station:USF.COMPS:FHP:1,2016-11-01T19:00:00Z,28.1530,-82.8010,-9.528,1111122 
COMPS,ioos:station:USF.COMPS:FHP:1,2016-11-01T19:06:00Z,28.1530,-82.8010,-9.542,1111122 
COMPS,ioos:station:USF.COMPS:FHP:1,2016-11-01T19:12:00Z,28.1530,-82.8010,-9.543,1111122 
COMPS,ioos:station:USF.COMPS:FHP:1,2016-11-01T19:18:00Z,28.1530,-82.8010,-9.549,1111122 
COMPS,ioos:station:USF.COMPS:FHP:1,2016-11-01T19:24:00Z,28.1530,-82.8010,-9.562,1111122 
COMPS,ioos:station:USF.COMPS:FHP:1,2016-11-01T19:30:00Z,28.1530,-82.8010,-9.576,1111122 
COMPS,ioos:station:USF.COMPS:FHP:1,2016-11-01T19:36:00Z,28.1530,-82.8010,-9.588,1111122 
COMPS,ioos:station:USF.COMPS:FHP:1,2016-11-01T19:42:00Z,28.1530,-82.8010,-9.6,1111122 
COMPS,ioos:station:USF.COMPS:FHP:1,2016-11-01T19:48:00Z,28.1530,-82.8010,-9.607,1111122 
COMPS,ioos:station:USF.COMPS:FHP:1,2016-11-01T19:54:00Z,28.1530,-82.8010,-9.621,1111122 
COMPS,ioos:station:USF.COMPS:FHP:1,2016-11-01T20:00:00Z,28.1530,-82.8010,-9.634,1111122 
COMPS,ioos:station:USF.COMPS:FHP:1,2016-11-01T20:06:00Z,28.1530,-82.8010,-9.65,1111122 
COMPS,ioos:station:USF.COMPS:FHP:1,2016-11-01T20:12:00Z,28.1530,-82.8010,-9.667,1111122 
COMPS,ioos:station:USF.COMPS:FHP:1,2016-11-01T20:18:00Z,28.1530,-82.8010,-9.678,1111122 
COMPS,ioos:station:USF.COMPS:FHP:1,2016-11-01T20:24:00Z,28.1530,-82.8010,-9.695,1111122 
COMPS,ioos:station:USF.COMPS:FHP:1,2016-11-01T20:30:00Z,28.1530,-82.8010,-9.707,1111122 
COMPS,ioos:station:USF.COMPS:FHP:1,2016-11-01T20:36:00Z,28.1530,-82.8010,-9.72,1111122 
COMPS,ioos:station:USF.COMPS:FHP:1,2016-11-01T20:42:00Z,28.1530,-82.8010,-9.733,1111122 
COMPS,ioos:station:USF.COMPS:FHP:1,2016-11-01T20:48:00Z,28.1530,-82.8010,-9.746,1111122 
COMPS,ioos:station:USF.COMPS:FHP:1,2016-11-01T20:54:00Z,28.1530,-82.8010,-9.761,1111122 
COMPS,ioos:station:USF.COMPS:FHP:1,2016-11-01T21:00:00Z,28.1530,-82.8010,-9.77,1111122 
COMPS,ioos:station:USF.COMPS:FHP:1,2016-11-01T21:06:00Z,28.1530,-82.8010,-9.783,1111122 
COMPS,ioos:station:USF.COMPS:FHP:1,2016-11-01T21:12:00Z,28.1530,-82.8010,-9.796,1111122 
COMPS,ioos:station:USF.COMPS:FHP:1,2016-11-01T21:18:00Z,28.1530,-82.8010,-9.812,1111122 
COMPS,ioos:station:USF.COMPS:FHP:1,2016-11-01T21:24:00Z,28.1530,-82.8010,-9.82,1111122 
COMPS,ioos:station:USF.COMPS:FHP:1,2016-11-01T21:30:00Z,28.1530,-82.8010,-9.836,1111122 
COMPS,ioos:station:USF.COMPS:FHP:1,2016-11-01T21:36:00Z,28.1530,-82.8010,-9.845,1111122 
COMPS,ioos:station:USF.COMPS:FHP:1,2016-11-01T21:42:00Z,28.1530,-82.8010,-9.857,1111122 
COMPS,ioos:station:USF.COMPS:FHP:1,2016-11-01T21:48:00Z,28.1530,-82.8010,-9.871,1111122 
COMPS,ioos:station:USF.COMPS:FHP:1,2016-11-01T21:54:00Z,28.1530,-82.8010,-9.88,1111122 
COMPS,ioos:station:USF.COMPS:FHP:1,2016-11-01T22:00:00Z,28.1530,-82.8010,-9.889,1111122 
COMPS,ioos:station:USF.COMPS:FHP:1,2016-11-01T22:06:00Z,28.1530,-82.8010,-9.897,1111122 
COMPS,ioos:station:USF.COMPS:FHP:1,2016-11-01T22:12:00Z,28.1530,-82.8010,-9.91,1111122 
COMPS,ioos:station:USF.COMPS:FHP:1,2016-11-01T22:18:00Z,28.1530,-82.8010,-9.915,1111122 
COMPS,ioos:station:USF.COMPS:FHP:1,2016-11-01T22:24:00Z,28.1530,-82.8010,-9.924,1111122 
COMPS,ioos:station:USF.COMPS:FHP:1,2016-11-01T22:36:00Z,28.1530,-82.8010,-9.939,1111122 
COMPS,ioos:station:USF.COMPS:FHP:1,2016-11-01T22:48:00Z,28.1530,-82.8010,-9.955,1111122 
COMPS,ioos:station:USF.COMPS:FHP:1,2016-11-01T23:00:00Z,28.1530,-82.8010,-9.973,1111122 
COMPS,ioos:station:USF.COMPS:FHP:1,2016-11-01T23:12:00Z,28.1530,-82.8010,-9.976,1111122 
COMPS,ioos:station:USF.COMPS:FHP:1,2016-11-01T23:18:00Z,28.1530,-82.8010,-9.986,1111122 
COMPS,ioos:station:USF.COMPS:FHP:1,2016-11-01T23:36:00Z,28.1530,-82.8010,-9.986,1111122 
COMPS,ioos:station:USF.COMPS:FHP:1,2016-11-01T23:54:00Z,28.1530,-82.8010,-9.97,1111122 
COMPS,ioos:station:USF.COMPS:FHP:1,2016-11-02T00:00:00Z,28.1530,-82.8010,-9.961,1111122 
COMPS,ioos:station:USF.COMPS:FHP:1,2016-11-02T00:12:00Z,28.1530,-82.8010,-9.948,1111122 
COMPS,ioos:station:USF.COMPS:FHP:1,2016-11-02T00:24:00Z,28.1530,-82.8010,-9.933,1111122 
COMPS,ioos:station:USF.COMPS:FHP:1,2016-11-02T00:30:00Z,28.1530,-82.8010,-9.925,1111122 
COMPS,ioos:station:USF.COMPS:FHP:1,2016-11-02T00:42:00Z,28.1530,-82.8010,-9.904,1111122 
COMPS,ioos:station:USF.COMPS:FHP:1,2016-11-02T00:48:00Z,28.1530,-82.8010,-9.896,1111122 
COMPS,ioos:station:USF.COMPS:FHP:1,2016-11-02T00:54:00Z,28.1530,-82.8010,-9.885,1111122 
COMPS,ioos:station:USF.COMPS:FHP:1,2016-11-02T01:00:00Z,28.1530,-82.8010,-9.871,1111122 
COMPS,ioos:station:USF.COMPS:FHP:1,2016-11-02T01:06:00Z,28.1530,-82.8010,-9.857,1111122 
COMPS,ioos:station:USF.COMPS:FHP:1,2016-11-02T01:12:00Z,28.1530,-82.8010,-9.844,1111122 
COMPS,ioos:station:USF.COMPS:FHP:1,2016-11-02T01:18:00Z,28.1530,-82.8010,-9.827,1111122 
COMPS,ioos:station:USF.COMPS:FHP:1,2016-11-02T01:24:00Z,28.1530,-82.8010,-9.816,1111122 
COMPS,ioos:station:USF.COMPS:FHP:1,2016-11-02T01:30:00Z,28.1530,-82.8010,-9.798,1111122 
COMPS,ioos:station:USF.COMPS:FHP:1,2016-11-02T01:36:00Z,28.1530,-82.8010,-9.781,1111122 
COMPS,ioos:station:USF.COMPS:FHP:1,2016-11-02T01:42:00Z,28.1530,-82.8010,-9.762,1111122 
COMPS,ioos:station:USF.COMPS:FHP:1,2016-11-02T01:48:00Z,28.1530,-82.8010,-9.744,1111122 
COMPS,ioos:station:USF.COMPS:FHP:1,2016-11-02T01:54:00Z,28.1530,-82.8010,-9.725,1111122 
COMPS,ioos:station:USF.COMPS:FHP:1,2016-11-02T02:00:00Z,28.1530,-82.8010,-9.709,1111122 
COMPS,ioos:station:USF.COMPS:FHP:1,2016-11-02T02:06:00Z,28.1530,-82.8010,-9.694,1111122 
COMPS,ioos:station:USF.COMPS:FHP:1,2016-11-02T02:12:00Z,28.1530,-82.8010,-9.681,1111122 
COMPS,ioos:station:USF.COMPS:FHP:1,2016-11-02T02:18:00Z,28.1530,-82.8010,-9.666,1111122 
COMPS,ioos:station:USF.COMPS:FHP:1,2016-11-02T02:24:00Z,28.1530,-82.8010,-9.65,1111122 
COMPS,ioos:station:USF.COMPS:FHP:1,2016-11-02T02:30:00Z,28.1530,-82.8010,-9.628,1111122 
COMPS,ioos:station:USF.COMPS:FHP:1,2016-11-02T02:36:00Z,28.1530,-82.8010,-9.61,1111122 
COMPS,ioos:station:USF.COMPS:FHP:1,2016-11-02T02:42:00Z,28.1530,-82.8010,-9.591,1111122 
COMPS,ioos:station:USF.COMPS:FHP:1,2016-11-02T02:48:00Z,28.1530,-82.8010,-9.577,1111122 
COMPS,ioos:station:USF.COMPS:FHP:1,2016-11-02T02:54:00Z,28.1530,-82.8010,-9.556,1111122 
COMPS,ioos:station:USF.COMPS:FHP:1,2016-11-02T03:00:00Z,28.1530,-82.8010,-9.541,1111122 
COMPS,ioos:station:USF.COMPS:FHP:1,2016-11-02T03:06:00Z,28.1530,-82.8010,-9.524,1111122 
COMPS,ioos:station:USF.COMPS:FHP:1,2016-11-02T03:12:00Z,28.1530,-82.8010,-9.507,1111122 
COMPS,ioos:station:USF.COMPS:FHP:1,2016-11-02T03:18:00Z,28.1530,-82.8010,-9.494,1111122 
COMPS,ioos:station:USF.COMPS:FHP:1,2016-11-02T03:24:00Z,28.1530,-82.8010,-9.476,1111122 
COMPS,ioos:station:USF.COMPS:FHP:1,2016-11-02T03:30:00Z,28.1530,-82.8010,-9.46,1111122 
COMPS,ioos:station:USF.COMPS:FHP:1,2016-11-02T03:36:00Z,28.1530,-82.8010,-9.442,1111122 
COMPS,ioos:station:USF.COMPS:FHP:1,2016-11-02T03:42:00Z,28.1530,-82.8010,-9.426,1111122 
COMPS,ioos:station:USF.COMPS:FHP:1,2016-11-02T03:48:00Z,28.1530,-82.8010,-9.414,1111122 
COMPS,ioos:station:USF.COMPS:FHP:1,2016-11-02T03:54:00Z,28.1530,-82.8010,-9.402,1111122 
COMPS,ioos:station:USF.COMPS:FHP:1,2016-11-02T04:00:00Z,28.1530,-82.8010,-9.394,1111122 
COMPS,ioos:station:USF.COMPS:FHP:1,2016-11-02T04:06:00Z,28.1530,-82.8010,-9.385,1111122 
COMPS,ioos:station:USF.COMPS:FHP:1,2016-11-02T04:12:00Z,28.1530,-82.8010,-9.381,1111122 
COMPS,ioos:station:USF.COMPS:FHP:1,2016-11-02T04:18:00Z,28.1530,-82.8010,-9.377,1111122 
COMPS,ioos:station:USF.COMPS:FHP:1,2016-11-02T04:24:00Z,28.1530,-82.8010,-9.369,1111122 
COMPS,ioos:station:USF.COMPS:FHP:1,2016-11-02T04:30:00Z,28.1530,-82.8010,-9.364,1111122 
COMPS,ioos:station:USF.COMPS:FHP:1,2016-11-02T04:36:00Z,28.1530,-82.8010,-9.356,1111122 
COMPS,ioos:station:USF.COMPS:FHP:1,2016-11-02T04:42:00Z,28.1530,-82.8010,-9.348,1111122 
COMPS,ioos:station:USF.COMPS:FHP:1,2016-11-02T04:48:00Z,28.1530,-82.8010,-9.349,1111122 
COMPS,ioos:station:USF.COMPS:FHP:1,2016-11-02T04:54:00Z,28.1530,-82.8010,-9.348,1111122 
COMPS,ioos:station:USF.COMPS:FHP:1,2016-11-02T05:00:00Z,28.1530,-82.8010,-9.349,1111122 
COMPS,ioos:station:USF.COMPS:FHP:1,2016-11-02T05:06:00Z,28.1530,-82.8010,-9.356,1111122 
COMPS,ioos:station:USF.COMPS:FHP:1,2016-11-02T05:12:00Z,28.1530,-82.8010,-9.359,1111122 
COMPS,ioos:station:USF.COMPS:FHP:1,2016-11-02T05:18:00Z,28.1530,-82.8010,-9.368,1111122 
COMPS,ioos:station:USF.COMPS:FHP:1,2016-11-02T05:24:00Z,28.1530,-82.8010,-9.369,1111122 
COMPS,ioos:station:USF.COMPS:FHP:1,2016-11-02T05:30:00Z,28.1530,-82.8010,-9.37,1111122 
COMPS,ioos:station:USF.COMPS:FHP:1,2016-11-02T05:36:00Z,28.1530,-82.8010,-9.377,1111122 
COMPS,ioos:station:USF.COMPS:FHP:1,2016-11-02T05:42:00Z,28.1530,-82.8010,-9.379,1111122 
COMPS,ioos:station:USF.COMPS:FHP:1,2016-11-02T05:48:00Z,28.1530,-82.8010,-9.39,1111122 
COMPS,ioos:station:USF.COMPS:FHP:1,2016-11-02T05:54:00Z,28.1530,-82.8010,-9.397,1111122 
COMPS,ioos:station:USF.COMPS:FHP:1,2016-11-02T06:00:00Z,28.1530,-82.8010,-9.402,1111122 
COMPS,ioos:station:USF.COMPS:FHP:1,2016-11-02T06:06:00Z,28.1530,-82.8010,-9.412,1111122 
COMPS,ioos:station:USF.COMPS:FHP:1,2016-11-02T06:12:00Z,28.1530,-82.8010,-9.429,1111122 
COMPS,ioos:station:USF.COMPS:FHP:1,2016-11-02T06:18:00Z,28.1530,-82.8010,-9.447,1111122 
COMPS,ioos:station:USF.COMPS:FHP:1,2016-11-02T06:24:00Z,28.1530,-82.8010,-9.455,1111122 
COMPS,ioos:station:USF.COMPS:FHP:1,2016-11-02T06:30:00Z,28.1530,-82.8010,-9.47,1111122 
COMPS,ioos:station:USF.COMPS:FHP:1,2016-11-02T06:36:00Z,28.1530,-82.8010,-9.485,1111122 
COMPS,ioos:station:USF.COMPS:FHP:1,2016-11-02T06:42:00Z,28.1530,-82.8010,-9.496,1111122 
COMPS,ioos:station:USF.COMPS:FHP:1,2016-11-02T06:48:00Z,28.1530,-82.8010,-9.509,1111122 
COMPS,ioos:station:USF.COMPS:FHP:1,2016-11-02T06:54:00Z,28.1530,-82.8010,-9.524,1111122 
COMPS,ioos:station:USF.COMPS:FHP:1,2016-11-02T07:00:00Z,28.1530,-82.8010,-9.541,1111122 
COMPS,ioos:station:USF.COMPS:FHP:1,2016-11-02T07:06:00Z,28.1530,-82.8010,-9.56,1111122 
COMPS,ioos:station:USF.COMPS:FHP:1,2016-11-02T07:12:00Z,28.1530,-82.8010,-9.571,1111122 
COMPS,ioos:station:USF.COMPS:FHP:1,2016-11-02T07:18:00Z,28.1530,-82.8010,-9.589,1111122 
COMPS,ioos:station:USF.COMPS:FHP:1,2016-11-02T07:24:00Z,28.1530,-82.8010,-9.606,1111122 
COMPS,ioos:station:USF.COMPS:FHP:1,2016-11-02T07:30:00Z,28.1530,-82.8010,-9.623,1111122 
COMPS,ioos:station:USF.COMPS:FHP:1,2016-11-02T07:36:00Z,28.1530,-82.8010,-9.644,1111122 
COMPS,ioos:station:USF.COMPS:FHP:1,2016-11-02T07:42:00Z,28.1530,-82.8010,-9.654,1111122 
COMPS,ioos:station:USF.COMPS:FHP:1,2016-11-02T07:48:00Z,28.1530,-82.8010,-9.671,1111122 
COMPS,ioos:station:USF.COMPS:FHP:1,2016-11-02T07:54:00Z,28.1530,-82.8010,-9.689,1111122 
COMPS,ioos:station:USF.COMPS:FHP:1,2016-11-02T08:00:00Z,28.1530,-82.8010,-9.705,1111122 
COMPS,ioos:station:USF.COMPS:FHP:1,2016-11-02T08:06:00Z,28.1530,-82.8010,-9.723,1111122 
COMPS,ioos:station:USF.COMPS:FHP:1,2016-11-02T08:12:00Z,28.1530,-82.8010,-9.738,1111122 
COMPS,ioos:station:USF.COMPS:FHP:1,2016-11-02T08:18:00Z,28.1530,-82.8010,-9.758,1111122 
COMPS,ioos:station:USF.COMPS:FHP:1,2016-11-02T08:24:00Z,28.1530,-82.8010,-9.779,1111122 
COMPS,ioos:station:USF.COMPS:FHP:1,2016-11-02T08:30:00Z,28.1530,-82.8010,-9.796,1111122 
COMPS,ioos:station:USF.COMPS:FHP:1,2016-11-02T08:36:00Z,28.1530,-82.8010,-9.817,1111122 
COMPS,ioos:station:USF.COMPS:FHP:1,2016-11-02T08:42:00Z,28.1530,-82.8010,-9.839,1111122 
COMPS,ioos:station:USF.COMPS:FHP:1,2016-11-02T08:48:00Z,28.1530,-82.8010,-9.854,1111122 
COMPS,ioos:station:USF.COMPS:FHP:1,2016-11-02T08:54:00Z,28.1530,-82.8010,-9.876,1111122 
COMPS,ioos:station:USF.COMPS:FHP:1,2016-11-02T09:00:00Z,28.1530,-82.8010,-9.892,1111122 
COMPS,ioos:station:USF.COMPS:FHP:1,2016-11-02T09:06:00Z,28.1530,-82.8010,-9.912,1111122 
COMPS,ioos:station:USF.COMPS:FHP:1,2016-11-02T09:12:00Z,28.1530,-82.8010,-9.933,1111122 
COMPS,ioos:station:USF.COMPS:FHP:1,2016-11-02T09:18:00Z,28.1530,-82.8010,-9.953,1111122 
COMPS,ioos:station:USF.COMPS:FHP:1,2016-11-02T09:24:00Z,28.1530,-82.8010,-9.972,1111122 
COMPS,ioos:station:USF.COMPS:FHP:1,2016-11-02T09:30:00Z,28.1530,-82.8010,-9.989,1111122 
COMPS,ioos:station:USF.COMPS:FHP:1,2016-11-02T15:12:00Z,28.1530,-82.8010,-9.986,1111122 